| time (UTC) | temp C | wind direction | speed KPH | gust KPH | rain 1hr cm | rain 24hr cm | rain mn cm | humidity % | barometer mb |
| 20260902110559 | 25 | 84 | 1.6 | 3.2 | 0.00 | 0.00 | 0.00 | 99 | 1015.6 |
| 20260902110055 | 25 | 83 | 0.0 | 1.6 | 0.00 | 0.00 | 0.00 | 99 | 1015.5 |
| 20260902105555 | 25 | 83 | 0.0 | 1.6 | 0.00 | 0.00 | 0.00 | 99 | 1015.4 |
| 20260902105054 | 25 | 83 | 0.0 | 3.2 | 0.00 | 0.00 | 0.00 | 99 | 1015.6 |
| 20260902104550 | 25 | 105 | 1.6 | 1.6 | 0.00 | 0.00 | 0.00 | 99 | 1015.4 |
| 20260902104045 | 24 | 105 | 0.0 | 1.6 | 0.00 | 0.00 | 0.00 | 99 | 1015.3 |
| 20260902103540 | 24 | 105 | 3.2 | 3.2 | 0.00 | 0.00 | 0.00 | 99 | 1015.3 |
| 20260902103035 | 24 | 105 | 1.6 | 1.6 | 0.00 | 0.00 | 0.00 | 99 | 1015.4 |
| 20260902102532 | 24 | 105 | 1.6 | 1.6 | 0.00 | 0.00 | 0.00 | 99 | 1015.1 |
| 20260902102029 | 25 | 105 | 1.6 | 1.6 | 0.00 | 0.00 | 0.00 | 99 | 1015.4 |
| 20260902101524 | 25 | 106 | 0.0 | 0.0 | 0.00 | 0.00 | 0.00 | 99 | 1015.5 |
| 20260902101022 | 25 | 106 | 0.0 | 0.0 | 0.00 | 0.00 | 0.00 | 99 | 1015.2 |
| 20260902100517 | 25 | 106 | 0.0 | 0.0 | 0.00 | 0.00 | 0.00 | 99 | 1015.2 |
| 20260902100017 | 25 | 106 | 0.0 | 0.0 | 0.00 | 0.00 | 0.00 | 99 | 1015.5 |
| 20260902095517 | 25 | 106 | 0.0 | 0.0 | 0.00 | 0.00 | 0.00 | 99 | 1015.3 |
| 20260902095016 | 25 | 106 | 0.0 | 0.0 | 0.00 | 0.00 | 0.00 | 99 | 1015.4 |
| 20260902094512 | 25 | 106 | 0.0 | 0.0 | 0.00 | 0.00 | 0.00 | 99 | 1015.2 |
| 20260902094007 | 25 | 106 | 0.0 | 0.0 | 0.00 | 0.00 | 0.00 | 99 | 1015.3 |
| 20260902093502 | 25 | 106 | 0.0 | 0.0 | 0.00 | 0.00 | 0.00 | 99 | 1015.3 |
| 20260902093001 | 25 | 105 | 0.0 | 0.0 | 0.00 | 0.00 | 0.00 | 99 | 1015.2 |
| 20260902092457 | 25 | 105 | 0.0 | 0.0 | 0.00 | 0.00 | 0.00 | 99 | 1015.4 |
| 20260902091956 | 25 | 106 | 0.0 | 0.0 | 0.00 | 0.00 | 0.00 | 99 | 1015.3 |
| 20260902091452 | 25 | 105 | 0.0 | 1.6 | 0.00 | 0.00 | 0.00 | 99 | 1015.4 |
| 20260902090948 | 25 | 105 | 0.0 | 0.0 | 0.00 | 0.00 | 0.00 | 99 | 1015.5 |
| 20260902090443 | 25 | 106 | 0.0 | 0.0 | 0.00 | 0.00 | 0.00 | 99 | 1015.3 |
| 20260902085942 | 25 | 105 | 0.0 | 1.6 | 0.00 | 0.00 | 0.00 | 99 | 1015.3 |
| 20260902085437 | 25 | 105 | 0.0 | 0.0 | 0.00 | 0.00 | 0.00 | 99 | 1015.4 |
| 20260902084932 | 25 | 105 | 0.0 | 1.6 | 0.00 | 0.00 | 0.00 | 99 | 1015.4 |
| 20260902084429 | 25 | 105 | 1.6 | 1.6 | 0.00 | 0.00 | 0.00 | 99 | 1015.4 |
| 20260902083925 | 25 | 106 | 0.0 | 0.0 | 0.00 | 0.00 | 0.00 | 99 | 1015.4 |
| 20260902083424 | 25 | 105 | 0.0 | 0.0 | 0.00 | 0.00 | 0.00 | 99 | 1015.5 |
| 20260902082919 | 25 | 106 | 0.0 | 0.0 | 0.00 | 0.00 | 0.00 | 99 | 1015.4 |
| 20260902082415 | 25 | 105 | 0.0 | 0.0 | 0.00 | 0.00 | 0.00 | 99 | 1015.3 |
| 20260902081911 | 25 | 105 | 1.6 | 1.6 | 0.00 | 0.00 | 0.00 | 99 | 1015.1 |
| 20260902081407 | 25 | 105 | 1.6 | 1.6 | 0.00 | 0.00 | 0.00 | 99 | 1015.4 |
| 20260902080902 | 25 | 105 | 0.0 | 3.2 | 0.00 | 0.00 | 0.00 | 99 | 1015.2 |
| 20260902080358 | 25 | 106 | 0.0 | 1.6 | 0.00 | 0.00 | 0.00 | 99 | 1015.4 |
| 20260902075857 | 25 | 106 | 0.0 | 1.6 | 0.00 | 0.00 | 0.00 | 99 | 1015.4 |
| 20260902075354 | 25 | 106 | 0.0 | 0.0 | 0.00 | 0.00 | 0.00 | 99 | 1015.6 |
| 20260902074849 | 25 | 106 | 1.6 | 3.2 | 0.00 | 0.00 | 0.00 | 99 | 1015.5 |
| 20260902074345 | 25 | 114 | 1.6 | 1.6 | 0.00 | 0.00 | 0.00 | 99 | 1015.5 |
| 20260902073839 | 25 | 114 | 1.6 | 1.6 | 0.00 | 0.00 | 0.00 | 99 | 1015.5 |
| 20260902073336 | 25 | 114 | 0.0 | 1.6 | 0.00 | 0.00 | 0.00 | 99 | 1015.4 |
| 20260902072832 | 25 | 114 | 0.0 | 1.6 | 0.00 | 0.00 | 0.00 | 99 | 1015.5 |
| 20260902072327 | 25 | 114 | 1.6 | 1.6 | 0.00 | 0.00 | 0.00 | 99 | 1015.5 |
| 20260902071824 | 25 | 114 | 0.0 | 0.0 | 0.00 | 0.00 | 0.00 | 99 | 1015.6 |
| 20260902071324 | 25 | 114 | 0.0 | 0.0 | 0.00 | 0.00 | 0.00 | 99 | 1015.6 |
| 20260902070820 | 25 | 114 | 0.0 | 0.0 | 0.00 | 0.00 | 0.00 | 99 | 1015.5 |
| 20260902070320 | 25 | 114 | 1.6 | 1.6 | 0.00 | 0.00 | 0.00 | 99 | 1015.5 |
| 20260902065818 | 25 | 114 | 0.0 | 1.6 | 0.00 | 0.00 | 0.00 | 99 | 1015.5 |
| 20260902065314 | 25 | 114 | 0.0 | 0.0 | 0.00 | 0.00 | 0.00 | 99 | 1015.5 |
| 20260902064809 | 25 | 114 | 0.0 | 1.6 | 0.00 | 0.00 | 0.00 | 99 | 1015.5 |
| 20260902064305 | 25 | 114 | 0.0 | 1.6 | 0.00 | 0.00 | 0.00 | 99 | 1015.6 |
| 20260902063801 | 25 | 114 | 0.0 | 1.6 | 0.00 | 0.00 | 0.00 | 99 | 1015.4 |
| 20260902063255 | 25 | 114 | 1.6 | 1.6 | 0.00 | 0.00 | 0.00 | 99 | 1015.6 |
| 20260902062755 | 25 | 114 | 1.6 | 1.6 | 0.00 | 0.00 | 0.00 | 99 | 1015.5 |
| 20260902062250 | 25 | 114 | 1.6 | 1.6 | 0.00 | 0.00 | 0.00 | 99 | 1015.6 |
| 20260902061748 | 25 | 114 | 1.6 | 1.6 | 0.00 | 0.00 | 0.00 | 99 | 1015.6 |
| 20260902061244 | 25 | 114 | 0.0 | 1.6 | 0.00 | 0.00 | 0.00 | 99 | 1015.6 |
| 20260902060741 | 25 | 114 | 1.6 | 1.6 | 0.00 | 0.00 | 0.00 | 99 | 1015.6 |
| 20260902060237 | 25 | 114 | 1.6 | 1.6 | 0.00 | 0.00 | 0.00 | 99 | 1015.5 |
| 20260902055732 | 25 | 114 | 0.0 | 1.6 | 0.00 | 0.00 | 0.00 | 99 | 1015.5 |
| 20260902055228 | 25 | 114 | 1.6 | 1.6 | 0.00 | 0.00 | 0.00 | 99 | 1015.3 |
| 20260902054723 | 25 | 114 | 1.6 | 1.6 | 0.00 | 0.00 | 0.00 | 98 | 1015.5 |
| 20260902054219 | 25 | 114 | 0.0 | 0.0 | 0.00 | 0.00 | 0.00 | 98 | 1015.5 |
| 20260902053714 | 25 | 114 | 1.6 | 1.6 | 0.00 | 0.00 | 0.00 | 98 | 1015.5 |
| 20260902053214 | 25 | 114 | 1.6 | 3.2 | 0.00 | 0.00 | 0.00 | 98 | 1015.7 |
| 20260902052713 | 25 | 115 | 0.0 | 0.0 | 0.00 | 0.00 | 0.00 | 98 | 1015.8 |
| 20260902052209 | 25 | 115 | 1.6 | 3.2 | 0.00 | 0.00 | 0.00 | 98 | 1015.8 |
| 20260902051708 | 25 | 99 | 1.6 | 3.2 | 0.00 | 0.00 | 0.00 | 98 | 1015.6 |
| 20260902051202 | 25 | 99 | 1.6 | 1.6 | 0.00 | 0.00 | 0.00 | 98 | 1015.6 |
| 20260902050657 | 25 | 99 | 0.0 | 1.6 | 0.00 | 0.00 | 0.00 | 98 | 1015.8 |
| 20260902050152 | 25 | 99 | 0.0 | 1.6 | 0.00 | 0.00 | 0.00 | 98 | 1015.8 |
| 20260902045647 | 25 | 99 | 0.0 | 1.6 | 0.00 | 2.69 | 2.69 | 98 | 1015.7 |
| 20260902045144 | 25 | 99 | 1.6 | 3.2 | 0.00 | 2.69 | 2.69 | 98 | 1015.8 |
| 20260902044643 | 25 | 100 | 0.0 | 3.2 | 0.00 | 2.69 | 2.69 | 97 | 1015.8 |
| 20260902044140 | 25 | 102 | 0.0 | 1.6 | 0.00 | 2.69 | 2.69 | 97 | 1015.9 |
| 20260902043635 | 25 | 102 | 1.6 | 1.6 | 0.00 | 2.69 | 2.69 | 97 | 1015.8 |
| 20260902043130 | 25 | 141 | 1.6 | 1.6 | 0.00 | 2.69 | 2.69 | 97 | 1015.9 |
| 20260902042629 | 25 | 142 | 0.0 | 3.2 | 0.00 | 2.69 | 2.69 | 97 | 1015.8 |
| 20260902042125 | 25 | 142 | 0.0 | 0.0 | 0.00 | 2.69 | 2.69 | 97 | 1015.6 |
| 20260902041624 | 26 | 142 | 0.0 | 3.2 | 0.00 | 2.69 | 2.69 | 96 | 1015.8 |
| 20260902041119 | 26 | 130 | 0.0 | 3.2 | 0.00 | 2.69 | 2.69 | 96 | 1015.8 |
| 20260902040619 | 26 | 108 | 0.0 | 1.6 | 0.00 | 2.69 | 2.69 | 96 | 1015.9 |
| 20260902040114 | 26 | 113 | 3.2 | 3.2 | 0.00 | 2.69 | 2.69 | 96 | 1015.9 |
| 20260902035612 | 26 | 111 | 0.0 | 1.6 | 0.00 | 2.69 | 2.69 | 96 | 1015.8 |
| 20260902035108 | 26 | 112 | 3.2 | 4.8 | 0.00 | 2.69 | 2.69 | 96 | 1015.7 |
| 20260902034607 | 26 | 97 | 1.6 | 4.8 | 0.00 | 2.69 | 2.69 | 96 | 1015.9 |
| 20260902034107 | 26 | 90 | 3.2 | 4.8 | 0.00 | 2.69 | 2.69 | 96 | 1015.9 |
| 20260902033606 | 26 | 100 | 3.2 | 4.8 | 0.00 | 2.69 | 2.69 | 96 | 1016.0 |
| 20260902033101 | 26 | 106 | 3.2 | 3.2 | 0.00 | 2.69 | 2.69 | 97 | 1015.8 |
| 20260902032559 | 26 | 95 | 1.6 | 1.6 | 0.00 | 2.69 | 2.69 | 97 | 1016.0 |
| 20260902032055 | 26 | 94 | 3.2 | 3.2 | 0.00 | 2.69 | 2.69 | 96 | 1016.0 |
| 20260902031549 | 26 | 113 | 6.4 | 9.7 | 0.00 | 2.69 | 2.69 | 96 | 1016.1 |
| 20260902031046 | 26 | 108 | 4.8 | 4.8 | 0.00 | 2.69 | 2.69 | 97 | 1015.9 |
| 20260902030546 | 26 | 90 | 1.6 | 3.2 | 0.00 | 2.69 | 2.69 | 97 | 1015.6 |
| 20260902030046 | 26 | 89 | 3.2 | 4.8 | 0.00 | 2.69 | 2.69 | 97 | 1015.8 |
| 20260902025546 | 26 | 97 | 1.6 | 4.8 | 0.00 | 2.69 | 2.69 | 97 | 1015.7 |
| 20260902025041 | 26 | 79 | 3.2 | 4.8 | 0.00 | 2.69 | 2.69 | 97 | 1015.7 |
| 20260902024536 | 26 | 93 | 1.6 | 1.6 | 0.00 | 2.69 | 2.69 | 97 | 1015.5 |
| 20260902024031 | 26 | 96 | 1.6 | 1.6 | 0.00 | 2.69 | 2.69 | 97 | 1015.8 |
| 20260902023527 | 26 | 96 | 1.6 | 3.2 | 0.00 | 2.69 | 2.69 | 97 | 1015.5 |
| 20260902023022 | 26 | 106 | 3.2 | 3.2 | 0.00 | 2.69 | 2.69 | 97 | 1015.6 |
| 20260902022521 | 26 | 98 | 1.6 | 3.2 | 0.00 | 2.69 | 2.69 | 97 | 1015.3 |
| 20260902022018 | 26 | 96 | 1.6 | 1.6 | 0.00 | 2.69 | 2.69 | 97 | 1015.5 |
| 20260902021513 | 26 | 96 | 0.0 | 1.6 | 0.00 | 2.69 | 2.69 | 97 | 1015.4 |
| 20260902021008 | 26 | 96 | 0.0 | 1.6 | 0.00 | 2.69 | 2.69 | 97 | 1015.2 |
| 20260902020503 | 26 | 95 | 0.0 | 3.2 | 0.00 | 2.69 | 2.69 | 96 | 1015.2 |
| 20260902015959 | 26 | 94 | 1.6 | 1.6 | 0.00 | 2.69 | 2.69 | 97 | 1014.9 |
| 20260902015455 | 26 | 95 | 3.2 | 3.2 | 0.00 | 2.69 | 2.69 | 97 | 1015.1 |
| 20260902014950 | 26 | 97 | 1.6 | 1.6 | 0.00 | 2.69 | 2.69 | 97 | 1015.0 |
| 20260902014446 | 26 | 97 | 0.0 | 1.6 | 0.00 | 2.69 | 2.69 | 96 | 1015.2 |
| 20260902013946 | 26 | 97 | 0.0 | 0.0 | 0.00 | 2.69 | 2.69 | 96 | 1014.8 |
| 20260902013441 | 26 | 97 | 0.0 | 0.0 | 0.00 | 2.69 | 2.69 | 96 | 1014.8 |
| 20260902012936 | 26 | 97 | 0.0 | 1.6 | 0.00 | 2.69 | 2.69 | 95 | 1014.8 |
| 20260902012432 | 26 | 97 | 0.0 | 1.6 | 0.00 | 2.69 | 2.69 | 95 | 1014.8 |
| 20260902011927 | 26 | 97 | 1.6 | 1.6 | 0.00 | 2.69 | 2.69 | 95 | 1014.9 |
| 20260902011422 | 26 | 97 | 0.0 | 1.6 | 0.00 | 2.69 | 2.69 | 94 | 1014.8 |
| 20260902010922 | 26 | 97 | 1.6 | 1.6 | 0.00 | 2.69 | 2.69 | 94 | 1014.8 |
| 20260902010417 | 26 | 96 | 3.2 | 4.8 | 0.00 | 2.69 | 2.69 | 94 | 1014.7 |
| 20260902005916 | 26 | 92 | 3.2 | 6.4 | 0.00 | 2.69 | 2.69 | 93 | 1014.8 |
| 20260902005415 | 26 | 94 | 3.2 | 4.8 | 0.00 | 2.69 | 2.69 | 93 | 1014.9 |
| 20260902004912 | 26 | 93 | 1.6 | 4.8 | 0.00 | 2.69 | 2.69 | 93 | 1014.7 |
| 20260902004411 | 27 | 97 | 3.2 | 4.8 | 0.00 | 2.69 | 2.69 | 93 | 1014.9 |
| 20260902003906 | 27 | 94 | 1.6 | 3.2 | 0.00 | 2.69 | 2.69 | 92 | 1014.8 |
| 20260902003401 | 27 | 78 | 0.0 | 1.6 | 0.00 | 2.69 | 2.69 | 92 | 1014.7 |
| 20260902002857 | 27 | 81 | 0.0 | 3.2 | 0.00 | 2.69 | 2.69 | 92 | 1014.7 |
| 20260902002356 | 27 | 90 | 3.2 | 3.2 | 0.00 | 2.69 | 2.69 | 91 | 1014.6 |
| 20260902001851 | 27 | 93 | 3.2 | 3.2 | 0.00 | 2.69 | 2.69 | 91 | 1014.7 |
| 20260902001346 | 27 | 95 | 3.2 | 4.8 | 0.00 | 2.69 | 2.69 | 90 | 1014.7 |
| 20260902000841 | 27 | 101 | 1.6 | 4.8 | 0.00 | 2.69 | 2.69 | 90 | 1014.9 |
| 20260902000337 | 27 | 96 | 0.0 | 3.2 | 0.00 | 2.69 | 2.69 | 89 | 1014.8 |
| 20260901235831 | 27 | 88 | 6.4 | 6.4 | 0.00 | 2.69 | 2.69 | 88 | 1015.1 |
| 20260901235331 | 27 | 91 | 3.2 | 4.8 | 0.00 | 2.69 | 2.69 | 88 | 1014.9 |
| 20260901234826 | 27 | 106 | 3.2 | 6.4 | 0.00 | 2.69 | 2.69 | 88 | 1015.1 |
| 20260901234322 | 27 | 103 | 6.4 | 6.4 | 0.00 | 2.69 | 2.69 | 87 | 1014.9 |
| 20260901233816 | 27 | 94 | 3.2 | 4.8 | 0.00 | 2.69 | 2.69 | 87 | 1014.9 |
| 20260901233311 | 27 | 93 | 6.4 | 9.7 | 0.00 | 2.69 | 2.69 | 87 | 1014.9 |
| 20260901232807 | 27 | 97 | 6.4 | 6.4 | 0.00 | 2.69 | 2.69 | 87 | 1014.8 |
| 20260901232301 | 28 | 89 | 1.6 | 9.7 | 0.00 | 2.69 | 2.69 | 87 | 1014.8 |
| 20260901231758 | 28 | 77 | 6.4 | 11.3 | 0.00 | 2.69 | 2.69 | 87 | 1014.8 |
| 20260901231254 | 28 | 106 | 6.4 | 9.7 | 0.00 | 2.69 | 2.69 | 86 | 1014.7 |
| 20260901230749 | 28 | 112 | 3.2 | 12.9 | 0.00 | 2.69 | 2.69 | 86 | 1014.7 |
| 20260901230248 | 28 | 97 | 6.4 | 11.3 | 0.00 | 2.69 | 2.69 | 86 | 1014.5 |
| 20260901225744 | 28 | 87 | 11.3 | 16.1 | 0.00 | 2.69 | 2.69 | 85 | 1014.5 |
| 20260901225238 | 28 | 102 | 8.0 | 11.3 | 0.00 | 2.69 | 2.69 | 85 | 1014.6 |
| 20260901224734 | 28 | 89 | 6.4 | 12.9 | 0.00 | 2.69 | 2.69 | 84 | 1014.6 |
| 20260901224230 | 28 | 106 | 4.8 | 9.7 | 0.00 | 2.69 | 2.69 | 84 | 1014.3 |
| 20260901223721 | 28 | 89 | 6.4 | 11.3 | 0.00 | 2.69 | 2.69 | 84 | 1014.3 |
| 20260901223220 | 28 | 86 | 6.4 | 16.1 | 0.00 | 2.69 | 2.69 | 84 | 1014.4 |
| 20260901222717 | 28 | 112 | 9.7 | 12.9 | 0.00 | 2.69 | 2.69 | 83 | 1014.4 |
| 20260901222213 | 28 | 85 | 6.4 | 9.7 | 0.00 | 2.69 | 2.69 | 83 | 1014.6 |
| 20260901221709 | 28 | 96 | 4.8 | 12.9 | 0.00 | 2.69 | 2.69 | 83 | 1014.5 |
| 20260901221204 | 28 | 106 | 11.3 | 14.5 | 0.00 | 2.69 | 2.69 | 83 | 1014.3 |
| 20260901220703 | 28 | 94 | 9.7 | 16.1 | 0.00 | 2.69 | 2.69 | 83 | 1014.4 |
| 20260901220203 | 28 | 86 | 8.0 | 16.1 | 0.00 | 2.69 | 2.69 | 84 | 1014.5 |
| 20260901215701 | 28 | 93 | 8.0 | 16.1 | 0.00 | 2.69 | 2.69 | 84 | 1014.6 |
| 20260901215156 | 28 | 77 | 11.3 | 16.1 | 0.00 | 2.69 | 2.69 | 83 | 1014.5 |
| 20260901214654 | 28 | 85 | 12.9 | 16.1 | 0.00 | 2.69 | 2.69 | 83 | 1014.6 |
| 20260901214149 | 28 | 65 | 9.7 | 16.1 | 0.00 | 2.69 | 2.69 | 83 | 1014.6 |
| 20260901213649 | 28 | 84 | 9.7 | 12.9 | 0.00 | 2.69 | 2.69 | 82 | 1014.7 |
| 20260901213143 | 28 | 111 | 12.9 | 14.5 | 0.00 | 2.69 | 2.69 | 82 | 1014.8 |
| 20260901212643 | 28 | 63 | 4.8 | 17.7 | 0.00 | 2.69 | 2.69 | 83 | 1014.6 |
| 20260901212139 | 28 | 121 | 11.3 | 14.5 | 0.00 | 2.69 | 2.69 | 82 | 1014.8 |
| 20260901211634 | 28 | 89 | 9.7 | 14.5 | 0.00 | 2.69 | 2.69 | 82 | 1014.9 |
| 20260901211131 | 28 | 76 | 4.8 | 6.4 | 0.00 | 2.69 | 2.69 | 83 | 1015.1 |
| 20260901210626 | 28 | 72 | 6.4 | 12.9 | 0.00 | 2.69 | 2.69 | 82 | 1014.9 |
| 20260901210122 | 28 | 81 | 9.7 | 11.3 | 0.00 | 2.69 | 2.69 | 81 | 1015.2 |
| 20260901205618 | 28 | 80 | 12.9 | 12.9 | 0.00 | 2.69 | 2.69 | 80 | 1015.3 |
| 20260901205117 | 28 | 62 | 14.5 | 16.1 | 0.00 | 2.69 | 2.69 | 79 | 1015.4 |
| 20260901204613 | 29 | 90 | 16.1 | 17.7 | 0.00 | 2.69 | 2.69 | 79 | 1015.5 |
| 20260901204108 | 29 | 76 | 9.7 | 14.5 | 0.00 | 2.69 | 2.69 | 78 | 1015.6 |
| 20260901203607 | 30 | 168 | 9.7 | 16.1 | 0.00 | 2.69 | 2.69 | 78 | 1015.4 |
| 20260901203102 | 29 | 99 | 9.7 | 12.9 | 0.00 | 2.69 | 2.69 | 80 | 1015.5 |
| 20260901202602 | 29 | 84 | 8.0 | 14.5 | 0.00 | 2.69 | 2.69 | 80 | 1015.5 |
| 20260901202058 | 30 | 108 | 6.4 | 9.7 | 0.00 | 2.69 | 2.69 | 80 | 1015.4 |
| 20260901201554 | 29 | 101 | 6.4 | 9.7 | 0.00 | 2.69 | 2.69 | 80 | 1015.3 |
| 20260901201053 | 28 | 107 | 3.2 | 4.8 | 0.00 | 2.69 | 2.69 | 83 | 1015.2 |
| 20260901200553 | 28 | 72 | 9.7 | 14.5 | 0.00 | 2.69 | 2.69 | 83 | 1015.4 |
| 20260901200048 | 28 | 105 | 4.8 | 17.7 | 0.00 | 2.69 | 2.69 | 84 | 1015.6 |
| 20260901195545 | 28 | 109 | 8.0 | 14.5 | 0.00 | 2.69 | 2.69 | 83 | 1016.0 |
| 20260901195045 | 28 | 90 | 4.8 | 11.3 | 0.00 | 2.69 | 2.69 | 85 | 1015.7 |
| 20260901194541 | 28 | 99 | 11.3 | 14.5 | 0.00 | 2.69 | 2.69 | 84 | 1016.0 |
| 20260901194036 | 28 | 105 | 11.3 | 14.5 | 0.00 | 2.69 | 2.69 | 84 | 1015.8 |
| 20260901193536 | 28 | 107 | 4.8 | 6.4 | 0.00 | 2.69 | 2.69 | 85 | 1015.8 |
| 20260901193031 | 28 | 92 | 11.3 | 12.9 | 0.00 | 2.69 | 2.69 | 85 | 1015.9 |
| 20260901192526 | 28 | 87 | 11.3 | 17.7 | 0.00 | 2.69 | 2.69 | 87 | 1015.8 |
| 20260901192022 | 28 | 93 | 11.3 | 16.1 | 0.00 | 2.69 | 2.69 | 87 | 1015.9 |
| 20260901191518 | 27 | 89 | 6.4 | 16.1 | 0.00 | 2.69 | 2.69 | 87 | 1015.7 |
| 20260901191013 | 27 | 89 | 8.0 | 9.7 | 0.00 | 2.69 | 2.69 | 88 | 1015.7 |
| 20260901190508 | 27 | 83 | 6.4 | 11.3 | 0.00 | 2.69 | 2.69 | 88 | 1015.8 |
| 20260901190007 | 27 | 98 | 8.0 | 9.7 | 0.00 | 2.69 | 2.69 | 91 | 1015.7 |
| 20260901185501 | 27 | 82 | 1.6 | 11.3 | 0.00 | 2.69 | 2.69 | 92 | 1015.9 |
| 20260901185000 | 26 | 90 | 3.2 | 6.4 | 0.00 | 2.69 | 2.69 | 93 | 1015.8 |
| 20260901184455 | 26 | 106 | 8.0 | 11.3 | 0.00 | 2.69 | 2.69 | 93 | 1015.9 |
| 20260901183951 | 26 | 88 | 3.2 | 6.4 | 0.00 | 2.69 | 2.69 | 94 | 1015.9 |
| 20260901183451 | 26 | 98 | 1.6 | 3.2 | 0.00 | 2.69 | 2.69 | 96 | 1016.1 |
| 20260901182946 | 25 | 86 | 1.6 | 4.8 | 0.00 | 2.69 | 2.69 | 96 | 1016.1 |
| 20260901182443 | 25 | 72 | 3.2 | 6.4 | 0.00 | 2.69 | 2.69 | 97 | 1016.2 |
| 20260901181943 | 25 | 92 | 4.8 | 11.3 | 0.00 | 2.69 | 2.69 | 97 | 1016.2 |
| 20260901181443 | 25 | 89 | 3.2 | 4.8 | 0.00 | 2.69 | 2.69 | 98 | 1016.5 |
| 20260901180942 | 25 | 80 | 4.8 | 6.4 | 0.00 | 2.69 | 2.69 | 98 | 1016.5 |
| 20260901180442 | 25 | 82 | 3.2 | 3.2 | 0.00 | 2.69 | 2.69 | 98 | 1016.2 |
| 20260901175939 | 25 | 102 | 1.6 | 6.4 | 0.00 | 2.69 | 2.69 | 98 | 1016.3 |
| 20260901175435 | 25 | 94 | 1.6 | 3.2 | 0.00 | 2.69 | 2.69 | 98 | 1016.1 |
| 20260901174930 | 24 | 92 | 3.2 | 4.8 | 0.00 | 2.69 | 2.69 | 98 | 1016.1 |
| 20260901174426 | 24 | 95 | 3.2 | 3.2 | 0.00 | 2.69 | 2.69 | 98 | 1016.0 |
| 20260901173921 | 24 | 95 | 3.2 | 3.2 | 0.00 | 2.69 | 2.69 | 98 | 1016.4 |
| 20260901173416 | 24 | 95 | 0.0 | 1.6 | 0.00 | 2.69 | 2.69 | 98 | 1016.2 |
| 20260901172912 | 24 | 94 | 1.6 | 1.6 | 0.18 | 2.69 | 2.69 | 98 | 1016.3 |
| 20260901172407 | 24 | 96 | 4.8 | 9.7 | 0.18 | 2.69 | 2.69 | 98 | 1016.3 |
| 20260901171905 | 24 | 93 | 3.2 | 6.4 | 0.00 | 2.67 | 2.67 | 98 | 1016.4 |
| 20260901171403 | 24 | 82 | 3.2 | 9.7 | 0.00 | 2.67 | 2.67 | 98 | 1016.5 |
| 20260901170902 | 24 | 78 | 4.8 | 6.4 | 0.00 | 2.67 | 2.67 | 98 | 1016.6 |
| 20260901170358 | 24 | 96 | 6.4 | 11.3 | 0.00 | 2.67 | 2.67 | 98 | 1016.6 |
| 20260901165852 | 24 | 89 | 6.4 | 9.7 | 0.13 | 2.67 | 2.67 | 98 | 1016.6 |
| 20260901165351 | 24 | 100 | 1.6 | 4.8 | 0.18 | 2.64 | 2.64 | 98 | 1016.5 |
| 20260901164848 | 23 | 102 | 6.4 | 6.4 | 0.66 | 2.64 | 2.64 | 98 | 1016.6 |
| 20260901164343 | 24 | 92 | 8.0 | 9.7 | 1.50 | 2.62 | 2.62 | 97 | 1016.7 |
| 20260901163843 | 25 | 123 | 8.0 | 14.5 | 1.37 | 2.51 | 2.51 | 97 | 1016.9 |
| 20260901163338 | 26 | 127 | 20.9 | 27.4 | 2.29 | 2.11 | 2.11 | 95 | 1016.9 |
| 20260901162833 | 26 | 124 | 3.2 | 3.2 | 0.00 | 1.73 | 1.73 | 95 | 1016.4 |
| 20260901162332 | 26 | 136 | 0.0 | 3.2 | 0.00 | 1.73 | 1.73 | 95 | 1016.2 |
| 20260901161832 | 26 | 89 | 3.2 | 1.6 | 0.00 | 1.73 | 1.73 | 96 | 1016.2 |
| 20260901161326 | 25 | 92 | 6.4 | 9.7 | 0.13 | 1.73 | 1.73 | 95 | 1016.2 |
| 20260901160821 | 25 | 69 | 6.4 | 6.4 | 1.07 | 1.73 | 1.73 | 96 | 1016.2 |
| 20260901160318 | 25 | 80 | 3.2 | 12.9 | 2.03 | 1.70 | 1.70 | 96 | 1016.1 |
| 20260901155817 | 26 | 137 | 6.4 | 16.1 | 1.80 | 1.50 | 1.50 | 95 | 1016.5 |
| 20260901155312 | 26 | 83 | 11.3 | 12.9 | 0.43 | 1.27 | 1.27 | 96 | 1016.6 |
| 20260901154809 | 26 | 99 | 1.6 | 4.8 | 0.30 | 1.19 | 1.19 | 95 | 1016.5 |
| 20260901154307 | 26 | 93 | 3.2 | 14.5 | 1.55 | 1.19 | 1.19 | 94 | 1016.4 |
| 20260901153802 | 26 | 102 | 8.0 | 11.3 | 1.80 | 1.12 | 1.12 | 94 | 1016.6 |
| 20260901153302 | 26 | 89 | 6.4 | 11.3 | 0.61 | 0.89 | 0.89 | 95 | 1016.4 |
| 20260901152801 | 26 | 96 | 4.8 | 9.7 | 0.13 | 0.79 | 0.79 | 96 | 1016.6 |
| 20260901152300 | 26 | 89 | 4.8 | 4.8 | 0.89 | 0.79 | 0.79 | 95 | 1016.3 |
| 20260901151755 | 26 | 100 | 4.8 | 4.8 | 0.79 | 0.76 | 0.76 | 94 | 1016.2 |
| 20260901151250 | 26 | 96 | 3.2 | 4.8 | 0.30 | 0.64 | 0.64 | 95 | 1016.2 |
| 20260901150749 | 26 | 64 | 6.4 | 12.9 | 0.30 | 0.64 | 0.64 | 94 | 1016.2 |
| 20260901150248 | 27 | 67 | 8.0 | 14.5 | 0.00 | 0.58 | 0.58 | 93 | 1016.1 |
| 20260901145746 | 27 | 73 | 6.4 | 9.7 | 0.00 | 0.58 | 0.58 | 91 | 1016.3 |
| 20260901145245 | 27 | 68 | 4.8 | 11.3 | 0.00 | 0.58 | 0.58 | 91 | 1016.0 |
| 20260901144741 | 27 | 104 | 3.2 | 6.4 | 0.00 | 0.58 | 0.58 | 92 | 1016.2 |
| 20260901144237 | 27 | 82 | 6.4 | 6.4 | 0.00 | 0.58 | 0.58 | 91 | 1016.3 |
| 20260901143732 | 27 | 81 | 3.2 | 4.8 | 0.00 | 0.58 | 0.58 | 92 | 1016.2 |
| 20260901143228 | 26 | 87 | 6.4 | 6.4 | 0.00 | 0.58 | 0.58 | 92 | 1016.1 |
| 20260901142724 | 27 | 103 | 4.8 | 4.8 | 0.00 | 0.58 | 0.58 | 91 | 1016.1 |
| 20260901142223 | 26 | 86 | 4.8 | 9.7 | 0.00 | 0.58 | 0.58 | 91 | 1016.0 |
| 20260901141719 | 27 | 48 | 8.0 | 14.5 | 0.00 | 0.58 | 0.58 | 90 | 1015.8 |
| 20260901141218 | 27 | 90 | 6.4 | 9.7 | 0.00 | 0.58 | 0.58 | 89 | 1015.8 |
| 20260901140718 | 26 | 79 | 4.8 | 9.7 | 0.00 | 0.58 | 0.58 | 90 | 1016.0 |
| 20260901140216 | 26 | 89 | 6.4 | 12.9 | 0.00 | 0.58 | 0.58 | 90 | 1015.8 |
| 20260901135711 | 26 | 85 | 6.4 | 9.7 | 0.00 | 0.58 | 0.58 | 89 | 1015.9 |
| 20260901135206 | 26 | 101 | 6.4 | 4.8 | 0.00 | 0.58 | 0.58 | 91 | 1015.9 |
| 20260901134702 | 26 | 97 | 3.2 | 3.2 | 0.00 | 0.58 | 0.58 | 92 | 1015.9 |
| 20260901134157 | 26 | 98 | 1.6 | 3.2 | 0.00 | 0.58 | 0.58 | 93 | 1015.8 |
| 20260901133656 | 26 | 97 | 4.8 | 9.7 | 0.00 | 0.58 | 0.58 | 93 | 1015.9 |
| 20260901133155 | 25 | 95 | 1.6 | 4.8 | 0.00 | 0.58 | 0.58 | 95 | 1015.7 |
| 20260901132654 | 25 | 99 | 1.6 | 4.8 | 0.00 | 0.58 | 0.58 | 94 | 1015.9 |
| 20260901132149 | 25 | 107 | 6.4 | 6.4 | 0.18 | 0.58 | 0.58 | 94 | 1015.7 |
| 20260901131644 | 25 | 79 | 8.0 | 9.7 | 0.30 | 0.58 | 0.58 | 94 | 1015.8 |
| 20260901131143 | 25 | 70 | 4.8 | 6.4 | 0.13 | 0.56 | 0.56 | 94 | 1015.7 |
| 20260901130638 | 25 | 82 | 4.8 | 9.7 | 0.00 | 0.53 | 0.53 | 94 | 1015.9 |
| 20260901130137 | 25 | 95 | 4.8 | 6.4 | 0.00 | 0.53 | 0.53 | 94 | 1016.1 |
| 20260901125636 | 25 | 84 | 3.2 | 3.2 | 0.00 | 0.53 | 0.53 | 94 | 1016.1 |
| 20260901125131 | 25 | 102 | 6.4 | 6.4 | 0.00 | 0.53 | 0.53 | 94 | 1016.2 |
| 20260901124626 | 25 | 191 | 4.8 | 6.4 | 0.00 | 0.53 | 0.53 | 94 | 1015.8 |
| 20260901124125 | 25 | 83 | 3.2 | 4.8 | 0.00 | 0.53 | 0.53 | 94 | 1015.7 |
| 20260901123625 | 25 | 91 | 3.2 | 4.8 | 0.00 | 0.53 | 0.53 | 94 | 1015.5 |
| 20260901123120 | 25 | 81 | 6.4 | 11.3 | 0.00 | 0.53 | 0.53 | 93 | 1015.1 |
| 20260901122618 | 25 | 89 | 6.4 | 4.8 | 0.00 | 0.53 | 0.53 | 94 | 1015.3 |
| 20260901122113 | 25 | 81 | 4.8 | 9.7 | 0.00 | 0.53 | 0.53 | 94 | 1015.2 |
| 20260901121608 | 25 | 85 | 9.7 | 9.7 | 0.00 | 0.53 | 0.53 | 95 | 1015.1 |
| 20260901121103 | 25 | 77 | 6.4 | 9.7 | 0.00 | 0.53 | 0.53 | 95 | 1015.3 |
| 20260901120603 | 25 | 89 | 4.8 | 9.7 | 0.00 | 0.53 | 0.53 | 96 | 1015.2 |
| 20260901120058 | 25 | 78 | 6.4 | 9.7 | 0.00 | 0.53 | 0.53 | 96 | 1015.1 |
| 20260901115553 | 25 | 86 | 4.8 | 9.7 | 0.00 | 0.53 | 0.53 | 96 | 1015.2 |
| 20260901115050 | 25 | 76 | 8.0 | 9.7 | 0.00 | 0.53 | 0.53 | 96 | 1015.3 |
| 20260901114546 | 25 | 77 | 4.8 | 6.4 | 0.00 | 0.53 | 0.53 | 95 | 1015.1 |
| 20260901114044 | 25 | 99 | 4.8 | 6.4 | 0.00 | 0.53 | 0.53 | 96 | 1015.0 |
| 20260901113543 | 25 | 89 | 6.4 | 6.4 | 0.00 | 0.53 | 0.53 | 95 | 1015.0 |
| 20260901113040 | 25 | 84 | 4.8 | 9.7 | 0.00 | 0.53 | 0.53 | 95 | 1014.8 |
| 20260901112539 | 25 | 83 | 3.2 | 4.8 | 0.00 | 0.53 | 0.53 | 96 | 1015.1 |
| 20260901112034 | 25 | 96 | 4.8 | 9.7 | 0.18 | 0.53 | 0.53 | 96 | 1014.9 |
| 20260901111533 | 25 | 92 | 3.2 | 4.8 | 0.30 | 0.53 | 0.53 | 97 | 1014.9 |
| 20260901111031 | 25 | 106 | 4.8 | 4.8 | 0.00 | 0.48 | 0.48 | 98 | 1015.2 |